ヒル彗星

211P/Hill (2009)

English version
Home page
Updated on August 29, 2010

---------------------------------------------------------------------

・ プロフィール

符号 211P/2008 X1
発見日 2008年12月4日
発見光度 17.4等
発見者 R. E. Hill (Catalina Sky Survey)

・ 写真集

・ 軌道要素

The following orbital elements are taken from MPC 71279:

Epoch 2009 May 9.0 TT = JDT 2454960.5
T 2009 May 7.7936 TT                                    MPC
q   2.361716             (2000.0)            P               Q
n   0.1463643      Peri.    4.4091      -0.5219249      -0.8031159
a   3.565982       Node   117.2993      +0.7723815      -0.5879461
e   0.337710       Incl.   18.8701      +0.3619686      +0.0965624
P   6.73
From 247 observations 2003-2010.

・ 光度変化

        m1 = 12.5 + 5 logΔ + 10.0 log r

---------------------------------------------------------------------

軌道要素はMPCのEphemerides and Orbital Elementsに掲載されたものです。
光度グラフはComet for Windowsで作成したものです。

---------------------------------------------------------------------

Copyright(C) Seiichi Yoshida (comet@aerith.net). All rights reserved.